Flag for U.S.A. Weather past 2 weeks in Riverside, California, U.S.A.

Now
71 °F

Clear.


Feels Like: 76 °F
Forecast: 69 / 96 °F
Wind: No wind

Location: Riverside Municipal Airport

Current Time: Jul 30, 2014 at 6:15:05 AM

Latest Report: Jul 30, 2014 at 4:53 AM


Visibility: 10 mi

Pressure: 29.90 "Hg

Humidity: 59%

Dew point: 56 °F

Location of RiversideLocation

Historic Weather in Riverside — Graph

°F

Riverside temperature yesterday

Maximum temperature yesterday: 94 °F (at 1:53 PM)
Minimum temperature yesterday: 70 °F (at 5:53 AM)
Average temperature yesterday: 82 °F

Past Weeks' High & Low Weather Summary

 TemperatureHumidityPressure
High105 °F (Jul 24, 2:53 PM)87% (Jul 21, 5:53 AM)30.03 "Hg (Jul 21, 5:53 AM)
Low61 °F (Jul 18, 5:53 AM)10% (Jul 24, 12:53 PM)29.68 "Hg (Jul 24, 5:53 PM)
Average77 °F52%29.93 "Hg
* Reported Jul 15 4:53 AM — Jul 30 4:53 AM, Riverside, Weather by CustomWeather, © 2014

Note: Actual official high and low records may vary slightly from our data, if they occured in-between our weather recording intervals... More about our weather records

Advertising

Riverside weather history for previous 24 hours

 ConditionsComfort  
Time TempWeatherWind HumidityBarometerVisibility
4:53 AM
Jul 30
71 °FClear.No wind59%29.90 "Hg10 mi
3:53 AM71 °FClear.No wind59%29.90 "Hg10 mi
2:53 AM73 °FClear.No wind51%29.91 "Hg10 mi
1:53 AM73 °FClear.3 mph51%29.92 "Hg10 mi
12:53 AM75 °FClear.5 mph48%29.92 "Hg10 mi
11:53 PM
Jul 29
77 °FClear.No wind44%29.93 "Hg10 mi
10:53 PM78 °FClear.3 mph42%29.93 "Hg10 mi
9:53 PM78 °FClear.5 mph40%29.94 "Hg10 mi
8:53 PM81 °FClear.3 mph38%29.93 "Hg10 mi
7:53 PM83 °FSunny.6 mph36%29.91 "Hg10 mi
6:53 PM86 °FSunny.9 mph31%29.89 "Hg10 mi
5:53 PM91 °FSunny.10 mph28%29.88 "Hg10 mi
4:53 PM93 °FPartly sunny.9 mph24%29.88 "Hg10 mi
3:53 PM94 °FOvercast.10 mph25%29.89 "Hg10 mi
2:53 PM94 °FOvercast.12 mph22%29.90 "Hg10 mi
1:53 PM94 °FPartly sunny.7 mph22%29.92 "Hg10 mi
12:53 PM92 °FSunny.6 mph21%29.95 "Hg10 mi
11:53 AM91 °FSunny.6 mph19%29.97 "Hg10 mi
10:53 AM88 °FScattered clouds.3 mph18%29.98 "Hg10 mi
9:53 AM83 °FSunny.3 mph19%29.99 "Hg10 mi
8:53 AM79 °FSunny.3 mph22%30.00 "Hg10 mi
7:53 AM77 °FScattered clouds.No wind23%30.00 "Hg10 mi
6:53 AM71 °FPassing clouds.No wind34%29.99 "Hg10 mi
Weather by CustomWeather, © 2014

See weather overviewHow to use our weather pages